Weather History for LKPO - September, 2013

Change the Weather History Date:

Monday, September 2, 2013

  Actual Average Record
Temperature  
Mean Temperature 53 °F -  
Max Temperature 64 °F - - ()
Min Temperature 42 °F - - ()
Degree Days  
Heating Degree Days 12    
Growing Degree Days 3 (Base 50)    
Moisture  
Dew Point 47 °F    
Average Humidity 73    
Maximum Humidity 93    
Minimum Humidity 49    
Precipitation  
Precipitation 0.00 in - - ()
Sea Level Pressure  
Sea Level Pressure 30.15 in    
Wind  
Wind Speed 5 mph ()    
Max Wind Speed 14 mph    
Max Gust Speed -    
Visibility 6.2 miles    
Events Rain    
T = Trace of Precipitation, MM = Missing Value Source: Averaged Metar Reports

Daily Weather History Graph

Daily Weather History Graph

Search for Another Location

Airport or City:

Trip Planner

Search our weather history database for the weather conditions in past years. The results will help you decide how hot, cold, wet, or windy it might be!

Date:

Astronomy

Sep. 02, 2013 Rise Set
Actual Time 6:07 AM CEST 7:31 PM CEST
Civil Twilight 5:34 AM CEST 8:04 PM CEST
Nautical Twilight 4:54 AM CEST 8:44 PM CEST
Astronomical Twilight 4:10 AM CEST 9:27 PM CEST
Moon 2:57 AM CEST (9/2) 5:42 PM CEST (9/2)
Length of Visible Light 14h 29m
Length of Day
13h 23m
Waning Crescent, 9% of the Moon is Illuminated
Sep 2
Waning Crescent
Sep 5
New
Sep 12
First Quarter
Sep 19
Full
Sep 27
Last Quarter

Hourly Weather History & Observations

Time (CEST) Temp. Windchill Dew Point Humidity Pressure Visibility Wind Dir Wind Speed Gust Speed Precip Events Conditions
12:00 AM 50.0 °F - 44.6 °F 82% 30.21 in - West 5.8 mph - N/A   Clear
1:00 AM 48.2 °F - 42.8 °F 82% 30.21 in - West 2.3 mph - N/A   Clear
2:00 AM 46.4 °F - 42.8 °F 87% 30.21 in - Variable 1.2 mph - N/A   Clear
3:00 AM 46.4 °F - 42.8 °F 87% 30.21 in - Calm Calm - N/A   Clear
4:00 AM 46.4 °F 44.3 °F 42.8 °F 87% 30.21 in - South 4.6 mph - N/A   Clear
5:00 AM 42.8 °F 41.1 °F 41.0 °F 93% 30.21 in - South 3.5 mph - N/A   Clear
6:00 AM 46.4 °F 45.2 °F 42.8 °F 87% 30.18 in - WSW 3.5 mph - N/A   Clear
7:00 AM 46.4 °F 43.5 °F 44.6 °F 93% 30.18 in - South 5.8 mph - N/A   Clear
8:00 AM 50.0 °F - 46.4 °F 87% 30.18 in - SSW 6.9 mph - N/A   Clear
9:00 AM 53.6 °F - 50.0 °F 88% 30.18 in - South 5.8 mph - N/A   Clear
10:00 AM 57.2 °F - 51.8 °F 82% 30.18 in - SSW 8.1 mph - N/A   Clear
11:00 AM 60.8 °F - 48.2 °F 63% 30.15 in 6.2 mi WSW 10.4 mph - N/A   Mostly Cloudy
12:00 PM 62.6 °F - 48.2 °F 59% 30.15 in 6.2 mi WSW 8.1 mph - N/A   Scattered Clouds
1:00 PM 64.4 °F - 44.6 °F 49% 30.15 in 6.2 mi West 12.7 mph - N/A   Mostly Cloudy
2:00 PM 64.4 °F - 46.4 °F 52% 30.12 in 6.2 mi WNW 12.7 mph - N/A   Scattered Clouds
3:00 PM 62.6 °F - 46.4 °F 55% 30.12 in - West 12.7 mph - N/A   Clear
4:00 PM 62.6 °F - 46.4 °F 55% 30.12 in 6.2 mi West 10.4 mph - N/A   Mostly Cloudy
5:00 PM 62.6 °F - 48.2 °F 59% 30.09 in - WSW 4.6 mph - N/A   Clear
6:00 PM 62.6 °F - 48.2 °F 59% 30.09 in - West 4.6 mph - N/A   Clear
7:00 PM 62.6 °F - 46.4 °F 55% 30.09 in - WNW 12.7 mph - N/A   Clear
8:00 PM 60.8 °F - 46.4 °F 59% 30.09 in 6.2 mi WNW 13.8 mph - N/A   Overcast
8:36 PM 57.2 °F - 50.0 °F 77% 30.09 in 6.2 mi WNW 4.6 mph - N/A   Overcast
9:00 PM 57.2 °F - 50.0 °F 77% 30.09 in 6.2 mi WNW 8.1 mph - N/A Rain Light Rain Showers
10:00 PM 57.2 °F - 50.0 °F 77% 30.09 in 6.2 mi West 6.9 mph - N/A   Overcast
11:00 PM 59.0 °F - 51.8 °F 77% 30.09 in 6.2 mi West 8.1 mph - N/A   Overcast